Year,Month,Day,Hour,Minute,Value (Times are PST for temperature in C)
2021,03,27,00,00,4.00
2021,03,27,00,01,4.00
2021,03,27,00,02,4.00
2021,03,27,00,03,4.00
2021,03,27,00,04,4.00
2021,03,27,00,05,3.90
2021,03,27,00,06,3.90
2021,03,27,00,07,3.90
2021,03,27,00,08,3.90
2021,03,27,00,09,3.90
2021,03,27,00,10,3.90
2021,03,27,00,11,3.90
2021,03,27,00,12,3.80
2021,03,27,00,13,3.80
2021,03,27,00,14,3.80
2021,03,27,00,15,3.80
2021,03,27,00,16,3.80
2021,03,27,00,17,3.80
2021,03,27,00,18,3.80
2021,03,27,00,19,3.80
2021,03,27,00,20,3.80
2021,03,27,00,21,3.80
2021,03,27,00,22,3.80
2021,03,27,00,23,3.80
2021,03,27,00,24,3.70
2021,03,27,00,25,3.70
2021,03,27,00,26,3.70
2021,03,27,00,27,3.70
2021,03,27,00,28,3.70
2021,03,27,00,29,3.70
2021,03,27,00,30,3.70
2021,03,27,00,31,3.70
2021,03,27,00,32,3.70
2021,03,27,00,33,3.60
2021,03,27,00,34,3.70
2021,03,27,00,35,3.60
2021,03,27,00,36,3.60
2021,03,27,00,37,3.60
2021,03,27,00,38,3.60
2021,03,27,00,39,3.60
2021,03,27,00,40,3.50
2021,03,27,00,41,3.50
2021,03,27,00,42,3.50
2021,03,27,00,43,3.50
2021,03,27,00,44,3.50
2021,03,27,00,45,3.50
2021,03,27,00,46,3.50
2021,03,27,00,47,3.50
2021,03,27,00,48,3.50
2021,03,27,00,49,3.50
2021,03,27,00,50,3.50
2021,03,27,00,51,3.50
2021,03,27,00,52,3.50
2021,03,27,00,53,3.50
2021,03,27,00,54,3.50
2021,03,27,00,55,3.50
2021,03,27,00,56,3.50
2021,03,27,00,57,3.40
2021,03,27,00,58,3.40
2021,03,27,00,59,3.40
2021,03,27,01,00,3.40
2021,03,27,01,01,3.40
2021,03,27,01,02,3.40
2021,03,27,01,03,3.40
2021,03,27,01,04,3.40
2021,03,27,01,05,3.40
2021,03,27,01,06,3.40
2021,03,27,01,07,3.40
2021,03,27,01,08,3.40
2021,03,27,01,09,3.40
2021,03,27,01,10,3.40
2021,03,27,01,11,3.50
2021,03,27,01,12,3.50
2021,03,27,01,13,3.40
2021,03,27,01,14,3.50
2021,03,27,01,15,3.50
2021,03,27,01,16,3.40
2021,03,27,01,17,3.40
2021,03,27,01,18,3.50
2021,03,27,01,19,3.40
2021,03,27,01,20,3.40
2021,03,27,01,21,3.40
2021,03,27,01,22,3.40
2021,03,27,01,23,3.40
2021,03,27,01,24,3.40
2021,03,27,01,25,3.40
2021,03,27,01,26,3.40
2021,03,27,01,27,3.40
2021,03,27,01,28,3.50
2021,03,27,01,29,3.50
2021,03,27,01,30,3.40
2021,03,27,01,31,3.50
2021,03,27,01,32,3.50
2021,03,27,01,33,3.50
2021,03,27,01,34,3.50
2021,03,27,01,35,3.50
2021,03,27,01,36,3.50
2021,03,27,01,37,3.50
2021,03,27,01,38,3.50
2021,03,27,01,39,3.50
2021,03,27,01,40,3.50
2021,03,27,01,41,3.50
2021,03,27,01,42,3.50
2021,03,27,01,43,3.50
2021,03,27,01,44,3.50
2021,03,27,01,45,3.50
2021,03,27,01,46,3.40
2021,03,27,01,47,3.40
2021,03,27,01,48,3.40
2021,03,27,01,49,3.40
2021,03,27,01,50,3.40
2021,03,27,01,51,3.40
2021,03,27,01,52,3.30
2021,03,27,01,53,3.30
2021,03,27,01,54,3.30
2021,03,27,01,55,3.30
2021,03,27,01,56,3.30
2021,03,27,01,57,3.30
2021,03,27,01,58,3.30
2021,03,27,01,59,3.20
2021,03,27,02,00,3.20
2021,03,27,02,01,3.20
2021,03,27,02,02,3.20
2021,03,27,02,03,3.20
2021,03,27,02,04,3.20
2021,03,27,02,05,3.20
2021,03,27,02,06,3.10
2021,03,27,02,07,3.20
2021,03,27,02,08,3.10
2021,03,27,02,09,3.10
2021,03,27,02,10,3.10
2021,03,27,02,11,3.20
2021,03,27,02,12,3.20
2021,03,27,02,13,3.20
2021,03,27,02,14,3.10
2021,03,27,02,15,3.20
2021,03,27,02,16,3.20
2021,03,27,02,17,3.20
2021,03,27,02,18,3.20
2021,03,27,02,19,3.20
2021,03,27,02,20,3.20
2021,03,27,02,21,3.20
2021,03,27,02,22,3.20
2021,03,27,02,23,3.20
2021,03,27,02,24,3.20
2021,03,27,02,25,3.20
2021,03,27,02,26,3.20
2021,03,27,02,27,3.20
2021,03,27,02,28,3.20
2021,03,27,02,29,3.10
2021,03,27,02,30,3.20
2021,03,27,02,31,3.10
2021,03,27,02,32,3.10
2021,03,27,02,33,3.10
2021,03,27,02,34,3.10
2021,03,27,02,35,3.10
2021,03,27,02,36,3.10
2021,03,27,02,37,3.10
2021,03,27,02,38,3.10
2021,03,27,02,39,3.10
2021,03,27,02,40,3.10
2021,03,27,02,41,3.00
2021,03,27,02,42,3.00
2021,03,27,02,43,3.00
2021,03,27,02,44,3.00
2021,03,27,02,45,2.90
2021,03,27,02,46,2.90
2021,03,27,02,47,2.90
2021,03,27,02,48,2.90
2021,03,27,02,49,2.80
2021,03,27,02,50,2.80
2021,03,27,02,51,2.80
2021,03,27,02,52,2.80
2021,03,27,02,53,2.80
2021,03,27,02,54,2.80
2021,03,27,02,55,2.70
2021,03,27,02,56,2.70
2021,03,27,02,57,2.70
2021,03,27,02,58,2.70
2021,03,27,02,59,2.70
2021,03,27,03,00,2.70
2021,03,27,03,01,2.70
2021,03,27,03,02,2.70
2021,03,27,03,03,2.60
2021,03,27,03,04,2.60
2021,03,27,03,05,2.70
2021,03,27,03,06,2.60
2021,03,27,03,07,2.60
2021,03,27,03,08,2.60
2021,03,27,03,09,2.60
2021,03,27,03,10,2.60
2021,03,27,03,11,2.60
2021,03,27,03,12,2.60
2021,03,27,03,13,2.60
2021,03,27,03,14,2.50
2021,03,27,03,15,2.50
2021,03,27,03,16,2.50
2021,03,27,03,17,2.50
2021,03,27,03,18,2.50
2021,03,27,03,19,2.50
2021,03,27,03,20,2.50
2021,03,27,03,21,2.40
2021,03,27,03,22,2.40
2021,03,27,03,23,2.40
2021,03,27,03,24,2.40
2021,03,27,03,25,2.40
2021,03,27,03,26,2.40
2021,03,27,03,27,2.40
2021,03,27,03,28,2.40
2021,03,27,03,29,2.40
2021,03,27,03,30,2.40
2021,03,27,03,31,2.40
2021,03,27,03,32,2.40
2021,03,27,03,33,2.40
2021,03,27,03,34,2.30
2021,03,27,03,35,2.30
2021,03,27,03,36,2.30
2021,03,27,03,37,2.30
2021,03,27,03,38,2.30
2021,03,27,03,39,2.30
2021,03,27,03,40,2.30
2021,03,27,03,41,2.30
2021,03,27,03,42,2.30
2021,03,27,03,43,2.30
2021,03,27,03,44,2.30
2021,03,27,03,45,2.30
2021,03,27,03,46,2.30
2021,03,27,03,47,2.30
2021,03,27,03,48,2.30
2021,03,27,03,49,2.30
2021,03,27,03,50,2.30
2021,03,27,03,51,2.30
2021,03,27,03,52,2.30
2021,03,27,03,53,2.30
2021,03,27,03,54,2.30
2021,03,27,03,55,2.30
2021,03,27,03,56,2.30
2021,03,27,03,57,2.30
2021,03,27,03,58,2.30
2021,03,27,03,59,2.30
2021,03,27,04,00,2.30
2021,03,27,04,01,2.30
2021,03,27,04,02,2.30
2021,03,27,04,03,2.30
2021,03,27,04,04,2.30
2021,03,27,04,05,2.20
2021,03,27,04,06,2.20
2021,03,27,04,07,2.20
2021,03,27,04,08,2.20
2021,03,27,04,09,2.20
2021,03,27,04,10,2.10
2021,03,27,04,11,2.10
2021,03,27,04,12,2.00
2021,03,27,04,13,2.00
2021,03,27,04,14,2.00
2021,03,27,04,15,2.00
2021,03,27,04,16,2.00
2021,03,27,04,17,2.00
2021,03,27,04,18,2.00
2021,03,27,04,19,2.00
2021,03,27,04,20,1.90
2021,03,27,04,21,1.90
2021,03,27,04,22,1.90
2021,03,27,04,23,1.90
2021,03,27,04,24,1.90
2021,03,27,04,25,1.90
2021,03,27,04,26,1.90
2021,03,27,04,27,1.90
2021,03,27,04,28,1.90
2021,03,27,04,29,1.90
2021,03,27,04,30,1.90
2021,03,27,04,31,1.90
2021,03,27,04,32,1.90
2021,03,27,04,33,1.90
2021,03,27,04,34,1.90
2021,03,27,04,35,1.90
2021,03,27,04,36,1.90
2021,03,27,04,37,1.90
2021,03,27,04,38,1.90
2021,03,27,04,39,1.90
2021,03,27,04,40,1.90
2021,03,27,04,41,1.90
2021,03,27,04,42,1.90
2021,03,27,04,43,1.90
2021,03,27,04,44,1.90
2021,03,27,04,45,1.90
2021,03,27,04,46,1.90
2021,03,27,04,47,1.90
2021,03,27,04,48,1.90
2021,03,27,04,49,1.90
2021,03,27,04,50,1.90
2021,03,27,04,51,1.90
2021,03,27,04,52,1.90
2021,03,27,04,53,2.00
2021,03,27,04,54,2.00
2021,03,27,04,55,1.90
2021,03,27,04,56,2.00
2021,03,27,04,57,1.90
2021,03,27,04,58,2.00
2021,03,27,04,59,2.00
2021,03,27,05,00,1.90
2021,03,27,05,01,1.90
2021,03,27,05,02,1.90
2021,03,27,05,03,1.90
2021,03,27,05,04,1.90
2021,03,27,05,05,1.90
2021,03,27,05,06,1.90
2021,03,27,05,07,1.90
2021,03,27,05,08,1.90
2021,03,27,05,09,1.90
2021,03,27,05,10,1.90
2021,03,27,05,11,1.90
2021,03,27,05,12,1.90
2021,03,27,05,13,2.00
2021,03,27,05,14,2.00
2021,03,27,05,15,2.00
2021,03,27,05,16,2.00
2021,03,27,05,17,2.00
2021,03,27,05,18,2.00
2021,03,27,05,19,2.00
2021,03,27,05,20,2.10
2021,03,27,05,21,2.10
2021,03,27,05,22,2.10
2021,03,27,05,23,2.10
2021,03,27,05,24,2.10
2021,03,27,05,25,2.10
2021,03,27,05,26,2.20
2021,03,27,05,27,2.20
2021,03,27,05,28,2.20
2021,03,27,05,29,2.20
2021,03,27,05,30,2.20
2021,03,27,05,31,2.30
2021,03,27,05,32,2.30
2021,03,27,05,33,2.30
2021,03,27,05,34,2.30
2021,03,27,05,35,2.30
2021,03,27,05,36,2.40
2021,03,27,05,37,2.40
2021,03,27,05,38,2.40
2021,03,27,05,39,2.40
2021,03,27,05,40,2.40
2021,03,27,05,41,2.40
2021,03,27,05,42,2.50
2021,03,27,05,43,2.50
2021,03,27,05,44,2.50
2021,03,27,05,45,2.50
2021,03,27,05,46,2.50
2021,03,27,05,47,2.50
2021,03,27,05,48,2.50
2021,03,27,05,49,2.50
2021,03,27,05,50,2.50
2021,03,27,05,51,2.50
2021,03,27,05,52,2.50
2021,03,27,05,53,2.50
2021,03,27,05,54,2.50
2021,03,27,05,55,2.50
2021,03,27,05,56,2.50
2021,03,27,05,57,2.50
2021,03,27,05,58,2.60
2021,03,27,05,59,2.50
2021,03,27,06,00,2.50
2021,03,27,06,01,2.60
2021,03,27,06,02,2.60
2021,03,27,06,03,2.60
2021,03,27,06,04,2.60
2021,03,27,06,05,2.60
2021,03,27,06,06,2.60
2021,03,27,06,07,2.60
2021,03,27,06,08,2.60
2021,03,27,06,09,2.60
2021,03,27,06,10,2.60
2021,03,27,06,11,2.60
2021,03,27,06,12,2.60
2021,03,27,06,13,2.60
2021,03,27,06,14,2.70
2021,03,27,06,15,2.70
2021,03,27,06,16,2.70
2021,03,27,06,17,2.70
2021,03,27,06,18,2.70
2021,03,27,06,19,2.70
2021,03,27,06,20,2.70
2021,03,27,06,21,2.70
2021,03,27,06,22,2.70
2021,03,27,06,23,2.70
2021,03,27,06,24,2.70
2021,03,27,06,25,2.70
2021,03,27,06,26,2.70
2021,03,27,06,27,2.80
2021,03,27,06,28,2.80
2021,03,27,06,29,2.80
2021,03,27,06,30,2.80
2021,03,27,06,31,2.80
2021,03,27,06,32,2.80
2021,03,27,06,33,2.80
2021,03,27,06,34,2.80
2021,03,27,06,35,2.80
2021,03,27,06,36,2.80
2021,03,27,06,37,2.80
2021,03,27,06,38,2.80
2021,03,27,06,39,2.80
2021,03,27,06,40,2.80
2021,03,27,06,41,2.90
2021,03,27,06,42,2.90
2021,03,27,06,43,2.90
2021,03,27,06,44,2.90
2021,03,27,06,45,2.90
2021,03,27,06,46,2.90
2021,03,27,06,47,2.90
2021,03,27,06,48,2.90
2021,03,27,06,49,2.90
2021,03,27,06,50,3.00
2021,03,27,06,51,3.00
2021,03,27,06,52,3.00
2021,03,27,06,53,3.00
2021,03,27,06,54,3.00
2021,03,27,06,55,3.00
2021,03,27,06,56,3.10
2021,03,27,06,57,3.10
2021,03,27,06,58,3.10
2021,03,27,06,59,3.10
2021,03,27,07,00,3.10
2021,03,27,07,01,3.10
2021,03,27,07,02,3.10
2021,03,27,07,03,3.10
2021,03,27,07,04,3.20
2021,03,27,07,05,3.20
2021,03,27,07,06,3.20
2021,03,27,07,07,3.20
2021,03,27,07,08,3.20
2021,03,27,07,09,3.20
2021,03,27,07,10,3.30
2021,03,27,07,11,3.30
2021,03,27,07,12,3.30
2021,03,27,07,13,3.30
2021,03,27,07,14,3.30
2021,03,27,07,15,3.30
2021,03,27,07,16,3.30
2021,03,27,07,17,3.30
2021,03,27,07,18,3.40
2021,03,27,07,19,3.40
2021,03,27,07,20,3.40
2021,03,27,07,21,3.40
2021,03,27,07,22,3.40
2021,03,27,07,23,3.40
2021,03,27,07,24,3.40
2021,03,27,07,25,3.40
2021,03,27,07,26,3.40
2021,03,27,07,27,3.40
2021,03,27,07,28,3.40
2021,03,27,07,29,3.40
2021,03,27,07,30,3.40
2021,03,27,07,31,3.40
2021,03,27,07,32,3.40
2021,03,27,07,33,3.40
2021,03,27,07,34,3.40
2021,03,27,07,35,3.40
2021,03,27,07,36,3.50
2021,03,27,07,37,3.50
2021,03,27,07,38,3.50
2021,03,27,07,39,3.50
2021,03,27,07,40,3.50
2021,03,27,07,41,3.50
2021,03,27,07,42,3.50
2021,03,27,07,43,3.50
2021,03,27,07,44,3.50
2021,03,27,07,45,3.60
2021,03,27,07,46,3.60
2021,03,27,07,47,3.60
2021,03,27,07,48,3.60
2021,03,27,07,49,3.60
2021,03,27,07,50,3.60
2021,03,27,07,51,3.60
2021,03,27,07,52,3.60
2021,03,27,07,53,3.60
2021,03,27,07,54,3.60
2021,03,27,07,55,3.60
2021,03,27,07,56,3.70
2021,03,27,07,57,3.70
2021,03,27,07,58,3.70
2021,03,27,07,59,3.70
2021,03,27,08,00,3.70
2021,03,27,08,01,3.70
2021,03,27,08,02,3.70
2021,03,27,08,03,3.80
2021,03,27,08,04,3.80
2021,03,27,08,05,3.80
2021,03,27,08,06,3.80
2021,03,27,08,07,3.80
2021,03,27,08,08,3.80
2021,03,27,08,09,3.80
2021,03,27,08,10,3.90
2021,03,27,08,11,3.90
2021,03,27,08,12,3.90
2021,03,27,08,13,3.90
2021,03,27,08,14,4.00
2021,03,27,08,15,4.00
2021,03,27,08,16,4.00
2021,03,27,08,17,4.00
2021,03,27,08,18,4.10
2021,03,27,08,19,4.10
2021,03,27,08,20,4.10
2021,03,27,08,21,4.10
2021,03,27,08,22,4.20
2021,03,27,08,23,4.20
2021,03,27,08,24,4.20
2021,03,27,08,25,4.20
2021,03,27,08,26,4.20
2021,03,27,08,27,4.20
2021,03,27,08,28,4.30
2021,03,27,08,29,4.30
2021,03,27,08,30,4.30
2021,03,27,08,31,4.30
2021,03,27,08,32,4.30
2021,03,27,08,33,4.30
2021,03,27,08,34,4.40
2021,03,27,08,35,4.40
2021,03,27,08,36,4.40
2021,03,27,08,37,4.40
2021,03,27,08,38,4.50
2021,03,27,08,39,4.50
2021,03,27,08,40,4.50
2021,03,27,08,41,4.50
2021,03,27,08,42,4.60
2021,03,27,08,43,4.60
2021,03,27,08,44,4.70
2021,03,27,08,45,4.70
2021,03,27,08,46,4.80
2021,03,27,08,47,4.80
2021,03,27,08,48,4.80
2021,03,27,08,49,4.90
2021,03,27,08,50,4.90
2021,03,27,08,51,4.90
2021,03,27,08,52,5.00
2021,03,27,08,53,5.00
2021,03,27,08,54,5.00
2021,03,27,08,55,5.10
2021,03,27,08,56,5.10
2021,03,27,08,57,5.20
2021,03,27,08,58,5.20
2021,03,27,08,59,5.30
2021,03,27,09,00,5.30
2021,03,27,09,01,5.40
2021,03,27,09,02,5.40
2021,03,27,09,03,5.50
2021,03,27,09,04,5.60
2021,03,27,09,05,5.60
2021,03,27,09,06,5.70
2021,03,27,09,07,5.70
2021,03,27,09,08,5.80
2021,03,27,09,09,5.90
2021,03,27,09,10,5.90
2021,03,27,09,11,6.00
2021,03,27,09,12,6.00
2021,03,27,09,13,6.10
2021,03,27,09,14,6.10
2021,03,27,09,15,6.10
2021,03,27,09,16,6.10
2021,03,27,09,17,6.20
2021,03,27,09,18,6.20
2021,03,27,09,19,6.30
2021,03,27,09,20,6.30
2021,03,27,09,21,6.40
2021,03,27,09,22,6.40
2021,03,27,09,23,6.50
2021,03,27,09,24,6.60
2021,03,27,09,25,6.60
2021,03,27,09,26,6.70
2021,03,27,09,27,6.70
2021,03,27,09,28,6.70
2021,03,27,09,29,6.80
2021,03,27,09,30,6.80
2021,03,27,09,31,6.90
2021,03,27,09,32,6.90
2021,03,27,09,33,6.90
2021,03,27,09,34,7.00
2021,03,27,09,35,7.10
2021,03,27,09,36,7.10
2021,03,27,09,37,7.10
2021,03,27,09,38,7.20
2021,03,27,09,39,7.20
2021,03,27,09,40,7.20
2021,03,27,09,41,7.30
2021,03,27,09,42,7.30
2021,03,27,09,43,7.30
2021,03,27,09,44,7.30
2021,03,27,09,45,7.30
2021,03,27,09,46,7.30
2021,03,27,09,47,7.30
2021,03,27,09,48,7.30
2021,03,27,09,49,7.30
2021,03,27,09,50,7.30
2021,03,27,09,51,7.30
2021,03,27,09,52,7.30
2021,03,27,09,53,7.30
2021,03,27,09,54,7.30
2021,03,27,09,55,7.30
2021,03,27,09,56,7.30
2021,03,27,09,57,7.30
2021,03,27,09,58,7.30
2021,03,27,09,59,7.30
2021,03,27,10,00,7.30
2021,03,27,10,01,7.30
2021,03,27,10,02,7.30
2021,03,27,10,03,7.30
2021,03,27,10,04,7.30
2021,03,27,10,05,7.30
2021,03,27,10,06,7.30
2021,03,27,10,07,7.30
2021,03,27,10,08,7.30
2021,03,27,10,09,7.30
2021,03,27,10,10,7.40
2021,03,27,10,11,7.40
2021,03,27,10,12,7.40
2021,03,27,10,13,7.40
2021,03,27,10,14,7.50
2021,03,27,10,15,7.50
2021,03,27,10,16,7.50
2021,03,27,10,17,7.50
2021,03,27,10,18,7.60
2021,03,27,10,19,7.60
2021,03,27,10,20,7.70
2021,03,27,10,21,7.80
2021,03,27,10,22,7.80
2021,03,27,10,23,7.90
2021,03,27,10,24,8.00
2021,03,27,10,25,8.10
2021,03,27,10,26,8.10
2021,03,27,10,27,8.20
2021,03,27,10,28,8.30
2021,03,27,10,29,8.30
2021,03,27,10,30,8.40
2021,03,27,10,31,8.50
2021,03,27,10,32,8.50
2021,03,27,10,33,8.60
2021,03,27,10,34,8.60
2021,03,27,10,35,8.60
2021,03,27,10,36,8.70
2021,03,27,10,37,8.70
2021,03,27,10,38,8.80
2021,03,27,10,39,8.80
2021,03,27,10,40,8.80
2021,03,27,10,41,8.80
2021,03,27,10,42,8.80
2021,03,27,10,43,8.80
2021,03,27,10,44,8.80
2021,03,27,10,45,8.80
2021,03,27,10,46,8.90
2021,03,27,10,47,8.90
2021,03,27,10,48,8.90
2021,03,27,10,49,8.90
2021,03,27,10,50,8.90
2021,03,27,10,51,8.90
2021,03,27,10,52,9.00
2021,03,27,10,53,9.00
2021,03,27,10,54,9.00
2021,03,27,10,55,9.00
2021,03,27,10,56,9.10
2021,03,27,10,57,9.10
2021,03,27,10,58,9.10
2021,03,27,10,59,9.20
2021,03,27,11,00,9.20
2021,03,27,11,01,9.20
2021,03,27,11,02,9.30
2021,03,27,11,03,9.30
2021,03,27,11,04,9.30
2021,03,27,11,05,9.40
2021,03,27,11,06,9.40
2021,03,27,11,07,9.40
2021,03,27,11,08,9.40
2021,03,27,11,09,9.50
2021,03,27,11,10,9.40
2021,03,27,11,11,9.40
2021,03,27,11,12,9.40
2021,03,27,11,13,9.40
2021,03,27,11,14,9.40
2021,03,27,11,15,9.40
2021,03,27,11,16,9.40
2021,03,27,11,17,9.40
2021,03,27,11,18,9.40
2021,03,27,11,19,9.40
2021,03,27,11,20,9.40
2021,03,27,11,21,9.40
2021,03,27,11,22,9.40
2021,03,27,11,23,9.40
2021,03,27,11,24,9.40
2021,03,27,11,25,9.40
2021,03,27,11,26,9.40
2021,03,27,11,27,9.40
2021,03,27,11,28,9.40
2021,03,27,11,29,9.40
2021,03,27,11,30,9.40
2021,03,27,11,31,9.40
2021,03,27,11,32,9.40
2021,03,27,11,33,9.40
2021,03,27,11,34,9.40
2021,03,27,11,35,9.40
2021,03,27,11,36,9.40
2021,03,27,11,37,9.30
2021,03,27,11,38,9.30
2021,03,27,11,39,9.30
2021,03,27,11,40,9.30
2021,03,27,11,41,9.30
2021,03,27,11,42,9.40
2021,03,27,11,43,9.40
2021,03,27,11,44,9.40
2021,03,27,11,45,9.40
2021,03,27,11,46,9.40
2021,03,27,11,47,9.40
2021,03,27,11,48,9.40
2021,03,27,11,49,9.40
2021,03,27,11,50,9.40
2021,03,27,11,51,9.50
2021,03,27,11,52,9.40
2021,03,27,11,53,9.40
2021,03,27,11,54,9.40
2021,03,27,11,55,9.40
2021,03,27,11,56,9.50
2021,03,27,11,57,9.50
2021,03,27,11,58,9.50
2021,03,27,11,59,9.60
2021,03,27,12,00,9.60
2021,03,27,12,01,9.60
2021,03,27,12,02,9.60
2021,03,27,12,03,9.60
2021,03,27,12,04,9.60
2021,03,27,12,05,9.70
2021,03,27,12,06,9.70
2021,03,27,12,07,9.70
2021,03,27,12,08,9.70
2021,03,27,12,09,9.70
2021,03,27,12,10,9.70
2021,03,27,12,11,9.70
2021,03,27,12,12,9.70
2021,03,27,12,13,9.70
2021,03,27,12,14,9.70
2021,03,27,12,15,9.60
2021,03,27,12,16,9.60
2021,03,27,12,17,9.60
2021,03,27,12,18,9.50
2021,03,27,12,19,9.50
2021,03,27,12,20,9.40
2021,03,27,12,21,9.40
2021,03,27,12,22,9.40
2021,03,27,12,23,9.30
2021,03,27,12,24,9.30
2021,03,27,12,25,9.30
2021,03,27,12,26,9.30
2021,03,27,12,27,9.20
2021,03,27,12,28,9.30
2021,03,27,12,29,9.20
2021,03,27,12,30,9.20
2021,03,27,12,31,9.20
2021,03,27,12,32,9.20
2021,03,27,12,33,9.20
2021,03,27,12,34,9.20
2021,03,27,12,35,9.20
2021,03,27,12,36,9.10
2021,03,27,12,37,9.20
2021,03,27,12,38,9.10
2021,03,27,12,39,9.10
2021,03,27,12,40,9.10
2021,03,27,12,41,9.10
2021,03,27,12,42,9.10
2021,03,27,12,43,9.10
2021,03,27,12,44,9.10
2021,03,27,12,45,9.00
2021,03,27,12,46,9.00
2021,03,27,12,47,9.00
2021,03,27,12,48,9.00
2021,03,27,12,49,9.00
2021,03,27,12,50,9.00
2021,03,27,12,51,9.00
2021,03,27,12,52,8.90
2021,03,27,12,53,9.00
2021,03,27,12,54,8.90
2021,03,27,12,55,8.90
2021,03,27,12,56,9.00
2021,03,27,12,57,9.00
2021,03,27,12,58,9.00
2021,03,27,12,59,9.00
2021,03,27,13,00,9.00
2021,03,27,13,01,9.00
2021,03,27,13,02,9.00
2021,03,27,13,03,9.00
2021,03,27,13,04,9.00
2021,03,27,13,05,9.00
2021,03,27,13,06,9.00
2021,03,27,13,07,9.00
2021,03,27,13,08,9.00
2021,03,27,13,09,8.90
2021,03,27,13,10,8.90
2021,03,27,13,11,8.90
2021,03,27,13,12,9.00
2021,03,27,13,13,9.00
2021,03,27,13,14,9.00
2021,03,27,13,15,9.00
2021,03,27,13,16,9.00
2021,03,27,13,17,9.00
2021,03,27,13,18,9.00
2021,03,27,13,19,8.90
2021,03,27,13,20,8.90
2021,03,27,13,21,8.90
2021,03,27,13,22,8.90
2021,03,27,13,23,8.90
2021,03,27,13,24,8.80
2021,03,27,13,25,8.90
2021,03,27,13,26,8.80
2021,03,27,13,27,8.80
2021,03,27,13,28,8.80
2021,03,27,13,29,8.80
2021,03,27,13,30,8.80
2021,03,27,13,31,8.80
2021,03,27,13,32,8.70
2021,03,27,13,33,8.80
2021,03,27,13,34,8.70
2021,03,27,13,35,8.80
2021,03,27,13,36,8.70
2021,03,27,13,37,8.80
2021,03,27,13,38,8.80
2021,03,27,13,39,8.80
2021,03,27,13,40,8.80
2021,03,27,13,41,8.80
2021,03,27,13,42,8.80
2021,03,27,13,43,8.80
2021,03,27,13,44,8.80
2021,03,27,13,45,8.80
2021,03,27,13,46,8.80
2021,03,27,13,47,8.80
2021,03,27,13,48,8.80
2021,03,27,13,49,8.80
2021,03,27,13,50,8.80
2021,03,27,13,51,8.80
2021,03,27,13,52,8.80
2021,03,27,13,53,8.80
2021,03,27,13,54,8.80
2021,03,27,13,55,8.80
2021,03,27,13,56,8.80
2021,03,27,13,57,8.80
2021,03,27,13,58,8.80
2021,03,27,13,59,8.80
2021,03,27,14,00,8.80
2021,03,27,14,01,8.80
2021,03,27,14,02,8.90
2021,03,27,14,03,8.90
2021,03,27,14,04,8.90
2021,03,27,14,05,8.90
2021,03,27,14,06,8.90
2021,03,27,14,07,8.90
2021,03,27,14,08,8.90
2021,03,27,14,09,8.90
2021,03,27,14,10,8.90
2021,03,27,14,11,8.90
2021,03,27,14,12,9.00
2021,03,27,14,13,9.00
2021,03,27,14,14,9.00
2021,03,27,14,15,9.00
2021,03,27,14,16,9.00
2021,03,27,14,17,9.10
2021,03,27,14,18,9.10
2021,03,27,14,19,9.10
2021,03,27,14,20,9.10
2021,03,27,14,21,9.10
2021,03,27,14,22,9.10
2021,03,27,14,23,9.10
2021,03,27,14,24,9.20
2021,03,27,14,25,9.20
2021,03,27,14,26,9.20
2021,03,27,14,27,9.20
2021,03,27,14,28,9.20
2021,03,27,14,29,9.20
2021,03,27,14,30,9.30
2021,03,27,14,31,9.30
2021,03,27,14,32,9.30
2021,03,27,14,33,9.30
2021,03,27,14,34,9.40
2021,03,27,14,35,9.40
2021,03,27,14,36,9.40
2021,03,27,14,37,9.50
2021,03,27,14,38,9.50
2021,03,27,14,39,9.50
2021,03,27,14,40,9.40
2021,03,27,14,41,9.40
2021,03,27,14,42,9.40
2021,03,27,14,43,9.40
2021,03,27,14,44,9.40
2021,03,27,14,45,9.40
2021,03,27,14,46,9.40
2021,03,27,14,47,9.40
2021,03,27,14,48,9.40
2021,03,27,14,49,9.40
2021,03,27,14,50,9.40
2021,03,27,14,51,9.40
2021,03,27,14,52,9.40
2021,03,27,14,53,9.40
2021,03,27,14,54,9.30
2021,03,27,14,55,9.30
2021,03,27,14,56,9.30
2021,03,27,14,57,9.30
2021,03,27,14,58,9.30
2021,03,27,14,59,9.30
2021,03,27,15,00,9.40
2021,03,27,15,01,9.40
2021,03,27,15,02,9.40
2021,03,27,15,03,9.40
2021,03,27,15,04,9.40
2021,03,27,15,05,9.40
2021,03,27,15,06,9.40
2021,03,27,15,07,9.40
2021,03,27,15,08,9.40
2021,03,27,15,09,9.40
2021,03,27,15,10,9.40
2021,03,27,15,11,9.40
2021,03,27,15,12,9.40
2021,03,27,15,13,9.40
2021,03,27,15,14,9.40
2021,03,27,15,15,9.40
2021,03,27,15,16,9.40
2021,03,27,15,17,9.40
2021,03,27,15,18,9.40
2021,03,27,15,19,9.40
2021,03,27,15,20,9.40
2021,03,27,15,21,9.40
2021,03,27,15,22,9.40
2021,03,27,15,23,9.40
2021,03,27,15,24,9.40
2021,03,27,15,25,9.40
2021,03,27,15,26,9.40
2021,03,27,15,27,9.40
2021,03,27,15,28,9.50
2021,03,27,15,29,9.50
2021,03,27,15,30,9.50
2021,03,27,15,31,9.50
2021,03,27,15,32,9.50
2021,03,27,15,33,9.50
2021,03,27,15,34,9.50
2021,03,27,15,35,9.50
2021,03,27,15,36,9.50
2021,03,27,15,37,9.50
2021,03,27,15,38,9.40
2021,03,27,15,39,9.40
2021,03,27,15,40,9.40
2021,03,27,15,41,9.40
2021,03,27,15,42,9.40
2021,03,27,15,43,9.40
2021,03,27,15,44,9.40
2021,03,27,15,45,9.40
2021,03,27,15,46,9.40
2021,03,27,15,47,9.40
2021,03,27,15,48,9.40
2021,03,27,15,49,9.40
2021,03,27,15,50,9.40
2021,03,27,15,51,9.40
2021,03,27,15,52,9.40
2021,03,27,15,53,9.40
2021,03,27,15,54,9.40
2021,03,27,15,55,9.40
2021,03,27,15,56,9.40
2021,03,27,15,57,9.40
2021,03,27,15,58,9.40
2021,03,27,15,59,9.40
2021,03,27,16,00,9.40
2021,03,27,16,01,9.40
2021,03,27,16,02,9.40
2021,03,27,16,03,9.40
2021,03,27,16,04,9.40
2021,03,27,16,05,9.40
2021,03,27,16,06,9.40
2021,03,27,16,07,9.40
2021,03,27,16,08,9.40
2021,03,27,16,09,9.40
2021,03,27,16,10,9.40
2021,03,27,16,11,9.40
2021,03,27,16,12,9.40
2021,03,27,16,13,9.40
2021,03,27,16,14,9.40
2021,03,27,16,15,9.40
2021,03,27,16,16,9.40
2021,03,27,16,17,9.40
2021,03,27,16,18,9.40
2021,03,27,16,19,9.40
2021,03,27,16,20,9.40
2021,03,27,16,21,9.40
2021,03,27,16,22,9.50
2021,03,27,16,23,9.50
2021,03,27,16,24,9.50
2021,03,27,16,25,9.50
2021,03,27,16,26,9.50
2021,03,27,16,27,9.50
2021,03,27,16,28,9.50
2021,03,27,16,29,9.50
2021,03,27,16,30,9.50
2021,03,27,16,31,9.60
2021,03,27,16,32,9.60
2021,03,27,16,33,9.60
2021,03,27,16,34,9.70
2021,03,27,16,35,9.70
2021,03,27,16,36,9.70
2021,03,27,16,37,9.70
2021,03,27,16,38,9.80
2021,03,27,16,39,9.70
2021,03,27,16,40,9.70
2021,03,27,16,41,9.70
2021,03,27,16,42,9.70
2021,03,27,16,43,9.70
2021,03,27,16,44,9.70
2021,03,27,16,45,9.70
2021,03,27,16,46,9.80
2021,03,27,16,47,9.80
2021,03,27,16,48,9.80
2021,03,27,16,49,9.80
2021,03,27,16,50,9.80
2021,03,27,16,51,9.80
2021,03,27,16,52,9.80
2021,03,27,16,53,9.80
2021,03,27,16,54,9.80
2021,03,27,16,55,9.80
2021,03,27,16,56,9.80
2021,03,27,16,57,9.90
2021,03,27,16,58,9.90
2021,03,27,16,59,9.90
2021,03,27,17,00,9.90
2021,03,27,17,01,10.00
2021,03,27,17,02,10.00
2021,03,27,17,03,10.10
2021,03,27,17,04,10.10
2021,03,27,17,05,10.10
2021,03,27,17,06,10.10
2021,03,27,17,07,10.10
2021,03,27,17,08,10.10
2021,03,27,17,09,10.10
2021,03,27,17,10,10.10
2021,03,27,17,11,10.10
2021,03,27,17,12,10.10
2021,03,27,17,13,10.10
2021,03,27,17,14,10.10
2021,03,27,17,15,10.10
2021,03,27,17,16,10.10
2021,03,27,17,17,10.10
2021,03,27,17,18,10.10
2021,03,27,17,19,10.10
2021,03,27,17,20,10.00
2021,03,27,17,21,10.00
2021,03,27,17,22,10.00
2021,03,27,17,23,10.00
2021,03,27,17,24,10.00
2021,03,27,17,25,10.10
2021,03,27,17,26,10.10
2021,03,27,17,27,10.10
2021,03,27,17,28,10.10
2021,03,27,17,29,10.10
2021,03,27,17,30,10.10
2021,03,27,17,31,10.20
2021,03,27,17,32,10.10
2021,03,27,17,33,10.10
2021,03,27,17,34,10.10
2021,03,27,17,35,10.10
2021,03,27,17,36,10.10
2021,03,27,17,37,10.10
2021,03,27,17,38,10.00
2021,03,27,17,39,10.00
2021,03,27,17,40,10.00
2021,03,27,17,41,10.00
2021,03,27,17,42,9.90
2021,03,27,17,43,9.90
2021,03,27,17,44,9.90
2021,03,27,17,45,9.90
2021,03,27,17,46,9.90
2021,03,27,17,47,9.90
2021,03,27,17,48,9.90
2021,03,27,17,49,9.90
2021,03,27,17,50,10.00
2021,03,27,17,51,10.00
2021,03,27,17,52,10.00
2021,03,27,17,53,10.10
2021,03,27,17,54,10.10
2021,03,27,17,55,10.10
2021,03,27,17,56,10.20
2021,03,27,17,57,10.20
2021,03,27,17,58,10.30
2021,03,27,17,59,10.30
2021,03,27,18,00,10.40
2021,03,27,18,01,10.40
2021,03,27,18,02,10.40
2021,03,27,18,03,10.50
2021,03,27,18,04,10.50